owner,sensor,date,latitude,longitude,vertical_datum,sea_water_temperature,qcFlag 
SCCF RECON,ioos:station:SCCF:11:1,2015-11-01T00:00:00Z,26.4679,-82.0631,1.74,27.16,2 
SCCF RECON,ioos:station:SCCF:11:1,2015-11-01T00:15:00Z,26.4679,-82.0631,1.74,27.12,2 
SCCF RECON,ioos:station:SCCF:11:1,2015-11-01T00:30:00Z,26.4679,-82.0631,1.74,26.92,2 
SCCF RECON,ioos:station:SCCF:11:1,2015-11-01T00:45:00Z,26.4679,-82.0631,1.74,26.9,2 
SCCF RECON,ioos:station:SCCF:11:1,2015-11-01T01:00:00Z,26.4679,-82.0631,1.74,26.89,2 
SCCF RECON,ioos:station:SCCF:11:1,2015-11-01T01:15:00Z,26.4679,-82.0631,1.74,26.87,2 
SCCF RECON,ioos:station:SCCF:11:1,2015-11-01T01:30:00Z,26.4679,-82.0631,1.74,26.85,2 
SCCF RECON,ioos:station:SCCF:11:1,2015-11-01T01:45:00Z,26.4679,-82.0631,1.74,27.05,2 
SCCF RECON,ioos:station:SCCF:11:1,2015-11-01T02:00:00Z,26.4679,-82.0631,1.74,27.4,2 
SCCF RECON,ioos:station:SCCF:11:1,2015-11-01T02:15:00Z,26.4679,-82.0631,1.74,27.42,2 
SCCF RECON,ioos:station:SCCF:11:1,2015-11-01T02:30:00Z,26.4679,-82.0631,1.74,27.41,2 
SCCF RECON,ioos:station:SCCF:11:1,2015-11-01T02:45:00Z,26.4679,-82.0631,1.74,27.45,2 
SCCF RECON,ioos:station:SCCF:11:1,2015-11-01T03:00:00Z,26.4679,-82.0631,1.74,27.32,2 
SCCF RECON,ioos:station:SCCF:11:1,2015-11-01T03:15:00Z,26.4679,-82.0631,1.74,27.2,2 
SCCF RECON,ioos:station:SCCF:11:1,2015-11-01T03:30:00Z,26.4679,-82.0631,1.74,27.2,2 
SCCF RECON,ioos:station:SCCF:11:1,2015-11-01T03:45:00Z,26.4679,-82.0631,1.74,27.16,2 
SCCF RECON,ioos:station:SCCF:11:1,2015-11-01T04:00:00Z,26.4679,-82.0631,1.74,27.06,2 
SCCF RECON,ioos:station:SCCF:11:1,2015-11-01T04:15:00Z,26.4679,-82.0631,1.74,27.06,2 
SCCF RECON,ioos:station:SCCF:11:1,2015-11-01T04:30:00Z,26.4679,-82.0631,1.74,27.13,2 
SCCF RECON,ioos:station:SCCF:11:1,2015-11-01T04:45:00Z,26.4679,-82.0631,1.74,27.01,2 
SCCF RECON,ioos:station:SCCF:11:1,2015-11-01T05:00:00Z,26.4679,-82.0631,1.74,26.9,2 
SCCF RECON,ioos:station:SCCF:11:1,2015-11-01T05:15:00Z,26.4679,-82.0631,1.74,26.84,2 
SCCF RECON,ioos:station:SCCF:11:1,2015-11-01T05:30:00Z,26.4679,-82.0631,1.74,26.81,2 
SCCF RECON,ioos:station:SCCF:11:1,2015-11-01T05:45:00Z,26.4679,-82.0631,1.74,26.79,2 
SCCF RECON,ioos:station:SCCF:11:1,2015-11-01T06:00:00Z,26.4679,-82.0631,1.74,26.81,2 
SCCF RECON,ioos:station:SCCF:11:1,2015-11-01T06:15:00Z,26.4679,-82.0631,1.74,26.74,2 
SCCF RECON,ioos:station:SCCF:11:1,2015-11-01T06:30:00Z,26.4679,-82.0631,1.74,26.79,2 
SCCF RECON,ioos:station:SCCF:11:1,2015-11-01T06:45:00Z,26.4679,-82.0631,1.74,26.8,2 
SCCF RECON,ioos:station:SCCF:11:1,2015-11-01T07:00:00Z,26.4679,-82.0631,1.74,26.78,2 
SCCF RECON,ioos:station:SCCF:11:1,2015-11-01T07:15:00Z,26.4679,-82.0631,1.74,26.76,2 
SCCF RECON,ioos:station:SCCF:11:1,2015-11-01T07:30:00Z,26.4679,-82.0631,1.74,26.78,2 
SCCF RECON,ioos:station:SCCF:11:1,2015-11-01T07:45:00Z,26.4679,-82.0631,1.74,26.79,2 
SCCF RECON,ioos:station:SCCF:11:1,2015-11-01T08:00:00Z,26.4679,-82.0631,1.74,26.8,2 
SCCF RECON,ioos:station:SCCF:11:1,2015-11-01T08:15:00Z,26.4679,-82.0631,1.74,26.79,2 
SCCF RECON,ioos:station:SCCF:11:1,2015-11-01T08:30:00Z,26.4679,-82.0631,1.74,26.85,2 
SCCF RECON,ioos:station:SCCF:11:1,2015-11-01T08:45:00Z,26.4679,-82.0631,1.74,26.82,2 
SCCF RECON,ioos:station:SCCF:11:1,2015-11-01T09:00:00Z,26.4679,-82.0631,1.74,26.8,2 
SCCF RECON,ioos:station:SCCF:11:1,2015-11-01T09:15:00Z,26.4679,-82.0631,1.74,26.76,2 
SCCF RECON,ioos:station:SCCF:11:1,2015-11-01T09:30:00Z,26.4679,-82.0631,1.74,26.83,2 
SCCF RECON,ioos:station:SCCF:11:1,2015-11-01T09:45:00Z,26.4679,-82.0631,1.74,26.82,2 
SCCF RECON,ioos:station:SCCF:11:1,2015-11-01T10:00:00Z,26.4679,-82.0631,1.74,26.77,2 
SCCF RECON,ioos:station:SCCF:11:1,2015-11-01T10:15:00Z,26.4679,-82.0631,1.74,26.78,2 
SCCF RECON,ioos:station:SCCF:11:1,2015-11-01T10:30:00Z,26.4679,-82.0631,1.74,26.72,2 
SCCF RECON,ioos:station:SCCF:11:1,2015-11-01T10:45:00Z,26.4679,-82.0631,1.74,26.71,2 
SCCF RECON,ioos:station:SCCF:11:1,2015-11-01T11:00:00Z,26.4679,-82.0631,1.74,26.79,2 
SCCF RECON,ioos:station:SCCF:11:1,2015-11-01T11:15:00Z,26.4679,-82.0631,1.74,26.89,2 
SCCF RECON,ioos:station:SCCF:11:1,2015-11-01T11:30:00Z,26.4679,-82.0631,1.74,26.9,2 
SCCF RECON,ioos:station:SCCF:11:1,2015-11-01T11:45:00Z,26.4679,-82.0631,1.74,26.83,2 
SCCF RECON,ioos:station:SCCF:11:1,2015-11-01T12:00:00Z,26.4679,-82.0631,1.74,26.91,2 
SCCF RECON,ioos:station:SCCF:11:1,2015-11-01T12:15:00Z,26.4679,-82.0631,1.74,26.95,2 
SCCF RECON,ioos:station:SCCF:11:1,2015-11-01T12:30:00Z,26.4679,-82.0631,1.74,26.87,2 
SCCF RECON,ioos:station:SCCF:11:1,2015-11-01T12:45:00Z,26.4679,-82.0631,1.74,26.88,2 
SCCF RECON,ioos:station:SCCF:11:1,2015-11-01T13:00:00Z,26.4679,-82.0631,1.74,26.91,2 
SCCF RECON,ioos:station:SCCF:11:1,2015-11-01T13:15:00Z,26.4679,-82.0631,1.74,26.93,2 
SCCF RECON,ioos:station:SCCF:11:1,2015-11-01T13:30:00Z,26.4679,-82.0631,1.74,26.95,2 
SCCF RECON,ioos:station:SCCF:11:1,2015-11-01T13:45:00Z,26.4679,-82.0631,1.74,26.97,2 
SCCF RECON,ioos:station:SCCF:11:1,2015-11-01T14:00:00Z,26.4679,-82.0631,1.74,27.03,2 
SCCF RECON,ioos:station:SCCF:11:1,2015-11-01T14:15:00Z,26.4679,-82.0631,1.74,27.04,2 
SCCF RECON,ioos:station:SCCF:11:1,2015-11-01T14:30:00Z,26.4679,-82.0631,1.74,27.1,2 
SCCF RECON,ioos:station:SCCF:11:1,2015-11-01T14:45:00Z,26.4679,-82.0631,1.74,27.12,2 
SCCF RECON,ioos:station:SCCF:11:1,2015-11-01T15:00:00Z,26.4679,-82.0631,1.74,27.18,2 
SCCF RECON,ioos:station:SCCF:11:1,2015-11-01T15:15:00Z,26.4679,-82.0631,1.74,27.23,2 
SCCF RECON,ioos:station:SCCF:11:1,2015-11-01T15:30:00Z,26.4679,-82.0631,1.74,27.3,2 
SCCF RECON,ioos:station:SCCF:11:1,2015-11-01T15:45:00Z,26.4679,-82.0631,1.74,27.36,2 
SCCF RECON,ioos:station:SCCF:11:1,2015-11-01T16:00:00Z,26.4679,-82.0631,1.74,27.43,2 
SCCF RECON,ioos:station:SCCF:11:1,2015-11-01T16:15:00Z,26.4679,-82.0631,1.74,27.52,2 
SCCF RECON,ioos:station:SCCF:11:1,2015-11-01T16:30:00Z,26.4679,-82.0631,1.74,27.67,2 
SCCF RECON,ioos:station:SCCF:11:1,2015-11-01T16:45:00Z,26.4679,-82.0631,1.74,27.5,2 
SCCF RECON,ioos:station:SCCF:11:1,2015-11-01T17:00:00Z,26.4679,-82.0631,1.74,27.57,2 
SCCF RECON,ioos:station:SCCF:11:1,2015-11-01T17:15:00Z,26.4679,-82.0631,1.74,27.53,2 
SCCF RECON,ioos:station:SCCF:11:1,2015-11-01T17:30:00Z,26.4679,-82.0631,1.74,27.43,2 
SCCF RECON,ioos:station:SCCF:11:1,2015-11-01T17:45:00Z,26.4679,-82.0631,1.74,27.26,2 
SCCF RECON,ioos:station:SCCF:11:1,2015-11-01T18:00:00Z,26.4679,-82.0631,1.74,27.24,2 
SCCF RECON,ioos:station:SCCF:11:1,2015-11-01T18:15:00Z,26.4679,-82.0631,1.74,27.21,2 
SCCF RECON,ioos:station:SCCF:11:1,2015-11-01T18:30:00Z,26.4679,-82.0631,1.74,28.08,2 
SCCF RECON,ioos:station:SCCF:11:1,2015-11-01T18:45:00Z,26.4679,-82.0631,1.74,27.88,2 
SCCF RECON,ioos:station:SCCF:11:1,2015-11-01T19:00:00Z,26.4679,-82.0631,1.74,27.84,2 
SCCF RECON,ioos:station:SCCF:11:1,2015-11-01T19:15:00Z,26.4679,-82.0631,1.74,28.05,2 
SCCF RECON,ioos:station:SCCF:11:1,2015-11-01T19:30:00Z,26.4679,-82.0631,1.74,28.15,2 
SCCF RECON,ioos:station:SCCF:11:1,2015-11-01T19:45:00Z,26.4679,-82.0631,1.74,27.58,2 
SCCF RECON,ioos:station:SCCF:11:1,2015-11-01T20:00:00Z,26.4679,-82.0631,1.74,27.64,2 
SCCF RECON,ioos:station:SCCF:11:1,2015-11-01T20:15:00Z,26.4679,-82.0631,1.74,27.53,2 
SCCF RECON,ioos:station:SCCF:11:1,2015-11-01T20:30:00Z,26.4679,-82.0631,1.74,27.54,2 
SCCF RECON,ioos:station:SCCF:11:1,2015-11-01T20:45:00Z,26.4679,-82.0631,1.74,27.42,2 
SCCF RECON,ioos:station:SCCF:11:1,2015-11-01T21:00:00Z,26.4679,-82.0631,1.74,27.4,2 
SCCF RECON,ioos:station:SCCF:11:1,2015-11-01T21:15:00Z,26.4679,-82.0631,1.74,27.34,2 
SCCF RECON,ioos:station:SCCF:11:1,2015-11-01T21:30:00Z,26.4679,-82.0631,1.74,27.3,2 
SCCF RECON,ioos:station:SCCF:11:1,2015-11-01T21:45:00Z,26.4679,-82.0631,1.74,27.34,2 
SCCF RECON,ioos:station:SCCF:11:1,2015-11-01T22:00:00Z,26.4679,-82.0631,1.74,27.5,2 
SCCF RECON,ioos:station:SCCF:11:1,2015-11-01T22:15:00Z,26.4679,-82.0631,1.74,27.44,2 
SCCF RECON,ioos:station:SCCF:11:1,2015-11-01T22:30:00Z,26.4679,-82.0631,1.74,27.34,2 
SCCF RECON,ioos:station:SCCF:11:1,2015-11-01T22:45:00Z,26.4679,-82.0631,1.74,27.36,2 
SCCF RECON,ioos:station:SCCF:11:1,2015-11-01T23:00:00Z,26.4679,-82.0631,1.74,27.41,2 
SCCF RECON,ioos:station:SCCF:11:1,2015-11-01T23:15:00Z,26.4679,-82.0631,1.74,27.4,2 
SCCF RECON,ioos:station:SCCF:11:1,2015-11-01T23:30:00Z,26.4679,-82.0631,1.74,27.4,2 
SCCF RECON,ioos:station:SCCF:11:1,2015-11-01T23:45:00Z,26.4679,-82.0631,1.74,27.42,2 
SCCF RECON,ioos:station:SCCF:11:1,2015-11-02T00:00:00Z,26.4679,-82.0631,1.74,27.48,2 
SCCF RECON,ioos:station:SCCF:11:1,2015-11-02T00:15:00Z,26.4679,-82.0631,1.74,27.39,2 
SCCF RECON,ioos:station:SCCF:11:1,2015-11-02T00:30:00Z,26.4679,-82.0631,1.74,27.58,2 
SCCF RECON,ioos:station:SCCF:11:1,2015-11-02T00:45:00Z,26.4679,-82.0631,1.74,27.83,2 
SCCF RECON,ioos:station:SCCF:11:1,2015-11-02T01:00:00Z,26.4679,-82.0631,1.74,27.95,2 
SCCF RECON,ioos:station:SCCF:11:1,2015-11-02T01:15:00Z,26.4679,-82.0631,1.74,27.99,2 
SCCF RECON,ioos:station:SCCF:11:1,2015-11-02T01:30:00Z,26.4679,-82.0631,1.74,28.04,2 
SCCF RECON,ioos:station:SCCF:11:1,2015-11-02T01:45:00Z,26.4679,-82.0631,1.74,28.01,2 
SCCF RECON,ioos:station:SCCF:11:1,2015-11-02T02:00:00Z,26.4679,-82.0631,1.74,27.62,2 
SCCF RECON,ioos:station:SCCF:11:1,2015-11-02T02:15:00Z,26.4679,-82.0631,1.74,27.57,2 
SCCF RECON,ioos:station:SCCF:11:1,2015-11-02T02:30:00Z,26.4679,-82.0631,1.74,27.55,2 
SCCF RECON,ioos:station:SCCF:11:1,2015-11-02T02:45:00Z,26.4679,-82.0631,1.74,27.54,2 
SCCF RECON,ioos:station:SCCF:11:1,2015-11-02T03:00:00Z,26.4679,-82.0631,1.74,27.53,2 
SCCF RECON,ioos:station:SCCF:11:1,2015-11-02T03:15:00Z,26.4679,-82.0631,1.74,27.59,2 
SCCF RECON,ioos:station:SCCF:11:1,2015-11-02T03:30:00Z,26.4679,-82.0631,1.74,27.71,2 
SCCF RECON,ioos:station:SCCF:11:1,2015-11-02T03:45:00Z,26.4679,-82.0631,1.74,27.67,2 
SCCF RECON,ioos:station:SCCF:11:1,2015-11-02T04:00:00Z,26.4679,-82.0631,1.74,27.65,2 
SCCF RECON,ioos:station:SCCF:11:1,2015-11-02T04:15:00Z,26.4679,-82.0631,1.74,27.64,2 
SCCF RECON,ioos:station:SCCF:11:1,2015-11-02T04:30:00Z,26.4679,-82.0631,1.74,27.62,2 
SCCF RECON,ioos:station:SCCF:11:1,2015-11-02T04:45:00Z,26.4679,-82.0631,1.74,27.61,2 
SCCF RECON,ioos:station:SCCF:11:1,2015-11-02T05:00:00Z,26.4679,-82.0631,1.74,27.61,2 
SCCF RECON,ioos:station:SCCF:11:1,2015-11-02T05:15:00Z,26.4679,-82.0631,1.74,27.58,2 
SCCF RECON,ioos:station:SCCF:11:1,2015-11-02T05:30:00Z,26.4679,-82.0631,1.74,27.53,2 
SCCF RECON,ioos:station:SCCF:11:1,2015-11-02T05:45:00Z,26.4679,-82.0631,1.74,27.47,2 
SCCF RECON,ioos:station:SCCF:11:1,2015-11-02T06:00:00Z,26.4679,-82.0631,1.74,27.49,2 
SCCF RECON,ioos:station:SCCF:11:1,2015-11-02T06:15:00Z,26.4679,-82.0631,1.74,27.52,2 
SCCF RECON,ioos:station:SCCF:11:1,2015-11-02T06:30:00Z,26.4679,-82.0631,1.74,27.47,2 
SCCF RECON,ioos:station:SCCF:11:1,2015-11-02T06:45:00Z,26.4679,-82.0631,1.74,27.41,2 
SCCF RECON,ioos:station:SCCF:11:1,2015-11-02T07:00:00Z,26.4679,-82.0631,1.74,27.33,2 
SCCF RECON,ioos:station:SCCF:11:1,2015-11-02T07:15:00Z,26.4679,-82.0631,1.74,27.27,2 
SCCF RECON,ioos:station:SCCF:11:1,2015-11-02T07:30:00Z,26.4679,-82.0631,1.74,27.29,2 
SCCF RECON,ioos:station:SCCF:11:1,2015-11-02T07:45:00Z,26.4679,-82.0631,1.74,27.24,2 
SCCF RECON,ioos:station:SCCF:11:1,2015-11-02T08:00:00Z,26.4679,-82.0631,1.74,27.15,2 
SCCF RECON,ioos:station:SCCF:11:1,2015-11-02T08:15:00Z,26.4679,-82.0631,1.74,27.29,2 
SCCF RECON,ioos:station:SCCF:11:1,2015-11-02T08:30:00Z,26.4679,-82.0631,1.74,27.25,2 
SCCF RECON,ioos:station:SCCF:11:1,2015-11-02T08:45:00Z,26.4679,-82.0631,1.74,27.04,2 
SCCF RECON,ioos:station:SCCF:11:1,2015-11-02T09:00:00Z,26.4679,-82.0631,1.74,27.05,2 
SCCF RECON,ioos:station:SCCF:11:1,2015-11-02T09:15:00Z,26.4679,-82.0631,1.74,27.06,2 
SCCF RECON,ioos:station:SCCF:11:1,2015-11-02T09:30:00Z,26.4679,-82.0631,1.74,27.08,2 
SCCF RECON,ioos:station:SCCF:11:1,2015-11-02T09:45:00Z,26.4679,-82.0631,1.74,27.11,2 
SCCF RECON,ioos:station:SCCF:11:1,2015-11-02T10:00:00Z,26.4679,-82.0631,1.74,27.0,2 
SCCF RECON,ioos:station:SCCF:11:1,2015-11-02T10:15:00Z,26.4679,-82.0631,1.74,27.04,2 
SCCF RECON,ioos:station:SCCF:11:1,2015-11-02T10:30:00Z,26.4679,-82.0631,1.74,26.96,2 
SCCF RECON,ioos:station:SCCF:11:1,2015-11-02T10:45:00Z,26.4679,-82.0631,1.74,26.94,2 
SCCF RECON,ioos:station:SCCF:11:1,2015-11-02T11:00:00Z,26.4679,-82.0631,1.74,27.03,2 
SCCF RECON,ioos:station:SCCF:11:1,2015-11-02T11:15:00Z,26.4679,-82.0631,1.74,27.12,2 
SCCF RECON,ioos:station:SCCF:11:1,2015-11-02T11:30:00Z,26.4679,-82.0631,1.74,26.96,2 
SCCF RECON,ioos:station:SCCF:11:1,2015-11-02T11:45:00Z,26.4679,-82.0631,1.74,27.06,2 
SCCF RECON,ioos:station:SCCF:11:1,2015-11-02T12:00:00Z,26.4679,-82.0631,1.74,27.19,2 
SCCF RECON,ioos:station:SCCF:11:1,2015-11-02T12:15:00Z,26.4679,-82.0631,1.74,27.32,2 
SCCF RECON,ioos:station:SCCF:11:1,2015-11-02T12:30:00Z,26.4679,-82.0631,1.74,27.33,2 
SCCF RECON,ioos:station:SCCF:11:1,2015-11-02T12:45:00Z,26.4679,-82.0631,1.74,27.33,2 
SCCF RECON,ioos:station:SCCF:11:1,2015-11-02T13:00:00Z,26.4679,-82.0631,1.74,27.35,2 
SCCF RECON,ioos:station:SCCF:11:1,2015-11-02T13:15:00Z,26.4679,-82.0631,1.74,27.34,2 
SCCF RECON,ioos:station:SCCF:11:1,2015-11-02T13:30:00Z,26.4679,-82.0631,1.74,27.36,2 
SCCF RECON,ioos:station:SCCF:11:1,2015-11-02T13:45:00Z,26.4679,-82.0631,1.74,27.38,2 
SCCF RECON,ioos:station:SCCF:11:1,2015-11-02T14:00:00Z,26.4679,-82.0631,1.74,27.42,2 
SCCF RECON,ioos:station:SCCF:11:1,2015-11-02T14:15:00Z,26.4679,-82.0631,1.74,27.47,2 
SCCF RECON,ioos:station:SCCF:11:1,2015-11-02T14:30:00Z,26.4679,-82.0631,1.74,27.5,2 
SCCF RECON,ioos:station:SCCF:11:1,2015-11-02T14:45:00Z,26.4679,-82.0631,1.74,27.54,2 
SCCF RECON,ioos:station:SCCF:11:1,2015-11-02T15:00:00Z,26.4679,-82.0631,1.74,27.56,2 
SCCF RECON,ioos:station:SCCF:11:1,2015-11-02T15:15:00Z,26.4679,-82.0631,1.74,27.63,2 
SCCF RECON,ioos:station:SCCF:11:1,2015-11-02T15:30:00Z,26.4679,-82.0631,1.74,27.68,2 
SCCF RECON,ioos:station:SCCF:11:1,2015-11-02T15:45:00Z,26.4679,-82.0631,1.74,27.75,2 
SCCF RECON,ioos:station:SCCF:11:1,2015-11-02T16:00:00Z,26.4679,-82.0631,1.74,27.81,2 
SCCF RECON,ioos:station:SCCF:11:1,2015-11-02T16:15:00Z,26.4679,-82.0631,1.74,27.9,2 
SCCF RECON,ioos:station:SCCF:11:1,2015-11-02T16:30:00Z,26.4679,-82.0631,1.74,27.98,2 
SCCF RECON,ioos:station:SCCF:11:1,2015-11-02T16:45:00Z,26.4679,-82.0631,1.74,28.06,2 
SCCF RECON,ioos:station:SCCF:11:1,2015-11-02T17:00:00Z,26.4679,-82.0631,1.74,28.16,2 
SCCF RECON,ioos:station:SCCF:11:1,2015-11-02T17:15:00Z,26.4679,-82.0631,1.74,28.3,2 
SCCF RECON,ioos:station:SCCF:11:1,2015-11-02T17:30:00Z,26.4679,-82.0631,1.74,28.43,2 
SCCF RECON,ioos:station:SCCF:11:1,2015-11-02T17:45:00Z,26.4679,-82.0631,1.74,28.21,2 
SCCF RECON,ioos:station:SCCF:11:1,2015-11-02T18:00:00Z,26.4679,-82.0631,1.74,28.33,2 
SCCF RECON,ioos:station:SCCF:11:1,2015-11-02T18:15:00Z,26.4679,-82.0631,1.74,27.87,2 
SCCF RECON,ioos:station:SCCF:11:1,2015-11-02T18:30:00Z,26.4679,-82.0631,1.74,27.88,2 
SCCF RECON,ioos:station:SCCF:11:1,2015-11-02T18:45:00Z,26.4679,-82.0631,1.74,27.9,2 
SCCF RECON,ioos:station:SCCF:11:1,2015-11-02T19:00:00Z,26.4679,-82.0631,1.74,27.84,2 
SCCF RECON,ioos:station:SCCF:11:1,2015-11-02T19:15:00Z,26.4679,-82.0631,1.74,27.86,2 
SCCF RECON,ioos:station:SCCF:11:1,2015-11-02T19:30:00Z,26.4679,-82.0631,1.74,27.8,2 
SCCF RECON,ioos:station:SCCF:11:1,2015-11-02T19:45:00Z,26.4679,-82.0631,1.74,27.84,2 
SCCF RECON,ioos:station:SCCF:11:1,2015-11-02T20:00:00Z,26.4679,-82.0631,1.74,28.09,2 
SCCF RECON,ioos:station:SCCF:11:1,2015-11-02T20:15:00Z,26.4679,-82.0631,1.74,28.19,2 
SCCF RECON,ioos:station:SCCF:11:1,2015-11-02T20:30:00Z,26.4679,-82.0631,1.74,28.14,2 
SCCF RECON,ioos:station:SCCF:11:1,2015-11-02T20:45:00Z,26.4679,-82.0631,1.74,28.04,2 
SCCF RECON,ioos:station:SCCF:11:1,2015-11-02T21:00:00Z,26.4679,-82.0631,1.74,28.02,2 
SCCF RECON,ioos:station:SCCF:11:1,2015-11-02T21:15:00Z,26.4679,-82.0631,1.74,28.16,2 
SCCF RECON,ioos:station:SCCF:11:1,2015-11-02T21:30:00Z,26.4679,-82.0631,1.74,28.23,2 
SCCF RECON,ioos:station:SCCF:11:1,2015-11-02T21:45:00Z,26.4679,-82.0631,1.74,28.07,2 
SCCF RECON,ioos:station:SCCF:11:1,2015-11-02T22:00:00Z,26.4679,-82.0631,1.74,27.96,2 
SCCF RECON,ioos:station:SCCF:11:1,2015-11-02T22:15:00Z,26.4679,-82.0631,1.74,27.96,2 
SCCF RECON,ioos:station:SCCF:11:1,2015-11-02T22:30:00Z,26.4679,-82.0631,1.74,27.82,2 
SCCF RECON,ioos:station:SCCF:11:1,2015-11-02T22:45:00Z,26.4679,-82.0631,1.74,27.72,2 
SCCF RECON,ioos:station:SCCF:11:1,2015-11-02T23:00:00Z,26.4679,-82.0631,1.74,27.89,2 
SCCF RECON,ioos:station:SCCF:11:1,2015-11-02T23:15:00Z,26.4679,-82.0631,1.74,27.88,2 
SCCF RECON,ioos:station:SCCF:11:1,2015-11-02T23:30:00Z,26.4679,-82.0631,1.74,27.78,2 
SCCF RECON,ioos:station:SCCF:11:1,2015-11-02T23:45:00Z,26.4679,-82.0631,1.74,27.87,2 
SCCF RECON,ioos:station:SCCF:11:1,2015-11-03T00:00:00Z,26.4679,-82.0631,1.74,27.91,2 
SCCF RECON,ioos:station:SCCF:11:1,2015-11-03T00:15:00Z,26.4679,-82.0631,1.74,27.93,2 
SCCF RECON,ioos:station:SCCF:11:1,2015-11-03T00:30:00Z,26.4679,-82.0631,1.74,27.89,2 
SCCF RECON,ioos:station:SCCF:11:1,2015-11-03T00:45:00Z,26.4679,-82.0631,1.74,27.93,2 
SCCF RECON,ioos:station:SCCF:11:1,2015-11-03T01:00:00Z,26.4679,-82.0631,1.74,27.79,2 
SCCF RECON,ioos:station:SCCF:11:1,2015-11-03T01:15:00Z,26.4679,-82.0631,1.74,27.75,2 
SCCF RECON,ioos:station:SCCF:11:1,2015-11-03T01:30:00Z,26.4679,-82.0631,1.74,27.73,2 
SCCF RECON,ioos:station:SCCF:11:1,2015-11-03T01:45:00Z,26.4679,-82.0631,1.74,27.78,2 
SCCF RECON,ioos:station:SCCF:11:1,2015-11-03T02:00:00Z,26.4679,-82.0631,1.74,27.78,2 
SCCF RECON,ioos:station:SCCF:11:1,2015-11-03T02:15:00Z,26.4679,-82.0631,1.74,27.74,2 
SCCF RECON,ioos:station:SCCF:11:1,2015-11-03T02:30:00Z,26.4679,-82.0631,1.74,27.91,2 
SCCF RECON,ioos:station:SCCF:11:1,2015-11-03T02:45:00Z,26.4679,-82.0631,1.74,27.93,2 
SCCF RECON,ioos:station:SCCF:11:1,2015-11-03T03:00:00Z,26.4679,-82.0631,1.74,28.06,2 
SCCF RECON,ioos:station:SCCF:11:1,2015-11-03T03:15:00Z,26.4679,-82.0631,1.74,28.06,2 
SCCF RECON,ioos:station:SCCF:11:1,2015-11-03T03:30:00Z,26.4679,-82.0631,1.74,28.12,2 
SCCF RECON,ioos:station:SCCF:11:1,2015-11-03T03:45:00Z,26.4679,-82.0631,1.74,28.13,2 
SCCF RECON,ioos:station:SCCF:11:1,2015-11-03T04:00:00Z,26.4679,-82.0631,1.74,28.17,2 
SCCF RECON,ioos:station:SCCF:11:1,2015-11-03T04:15:00Z,26.4679,-82.0631,1.74,28.17,2 
SCCF RECON,ioos:station:SCCF:11:1,2015-11-03T04:30:00Z,26.4679,-82.0631,1.74,28.15,2 
SCCF RECON,ioos:station:SCCF:11:1,2015-11-03T04:45:00Z,26.4679,-82.0631,1.74,28.13,2 
SCCF RECON,ioos:station:SCCF:11:1,2015-11-03T05:00:00Z,26.4679,-82.0631,1.74,28.21,2 
SCCF RECON,ioos:station:SCCF:11:1,2015-11-03T05:15:00Z,26.4679,-82.0631,1.74,28.31,2 
SCCF RECON,ioos:station:SCCF:11:1,2015-11-03T05:30:00Z,26.4679,-82.0631,1.74,28.26,2 
SCCF RECON,ioos:station:SCCF:11:1,2015-11-03T05:45:00Z,26.4679,-82.0631,1.74,28.23,2 
SCCF RECON,ioos:station:SCCF:11:1,2015-11-03T06:00:00Z,26.4679,-82.0631,1.74,28.13,2 
SCCF RECON,ioos:station:SCCF:11:1,2015-11-03T06:15:00Z,26.4679,-82.0631,1.74,27.98,2 
SCCF RECON,ioos:station:SCCF:11:1,2015-11-03T06:30:00Z,26.4679,-82.0631,1.74,28.05,2 
SCCF RECON,ioos:station:SCCF:11:1,2015-11-03T06:45:00Z,26.4679,-82.0631,1.74,28.03,2 
SCCF RECON,ioos:station:SCCF:11:1,2015-11-03T07:00:00Z,26.4679,-82.0631,1.74,28.04,2 
SCCF RECON,ioos:station:SCCF:11:1,2015-11-03T07:15:00Z,26.4679,-82.0631,1.74,28.0,2 
SCCF RECON,ioos:station:SCCF:11:1,2015-11-03T07:30:00Z,26.4679,-82.0631,1.74,27.76,2 
SCCF RECON,ioos:station:SCCF:11:1,2015-11-03T07:45:00Z,26.4679,-82.0631,1.74,27.5,2 
SCCF RECON,ioos:station:SCCF:11:1,2015-11-03T08:00:00Z,26.4679,-82.0631,1.74,27.69,2 
SCCF RECON,ioos:station:SCCF:11:1,2015-11-03T08:15:00Z,26.4679,-82.0631,1.74,27.7,2 
SCCF RECON,ioos:station:SCCF:11:1,2015-11-03T08:30:00Z,26.4679,-82.0631,1.74,27.52,2 
SCCF RECON,ioos:station:SCCF:11:1,2015-11-03T08:45:00Z,26.4679,-82.0631,1.74,27.52,2 
SCCF RECON,ioos:station:SCCF:11:1,2015-11-03T09:00:00Z,26.4679,-82.0631,1.74,27.51,2 
SCCF RECON,ioos:station:SCCF:11:1,2015-11-03T09:15:00Z,26.4679,-82.0631,1.74,27.51,2 
SCCF RECON,ioos:station:SCCF:11:1,2015-11-03T09:30:00Z,26.4679,-82.0631,1.74,27.5,2 
SCCF RECON,ioos:station:SCCF:11:1,2015-11-03T09:45:00Z,26.4679,-82.0631,1.74,27.49,2 
SCCF RECON,ioos:station:SCCF:11:1,2015-11-03T10:00:00Z,26.4679,-82.0631,1.74,27.49,2 
SCCF RECON,ioos:station:SCCF:11:1,2015-11-03T10:15:00Z,26.4679,-82.0631,1.74,27.53,2 
SCCF RECON,ioos:station:SCCF:11:1,2015-11-03T10:30:00Z,26.4679,-82.0631,1.74,27.47,2 
SCCF RECON,ioos:station:SCCF:11:1,2015-11-03T10:45:00Z,26.4679,-82.0631,1.74,27.52,2 
SCCF RECON,ioos:station:SCCF:11:1,2015-11-03T11:00:00Z,26.4679,-82.0631,1.74,27.48,2 
SCCF RECON,ioos:station:SCCF:11:1,2015-11-03T11:15:00Z,26.4679,-82.0631,1.74,27.49,2 
SCCF RECON,ioos:station:SCCF:11:1,2015-11-03T11:30:00Z,26.4679,-82.0631,1.74,27.39,2 
SCCF RECON,ioos:station:SCCF:11:1,2015-11-03T11:45:00Z,26.4679,-82.0631,1.74,27.48,2 
SCCF RECON,ioos:station:SCCF:11:1,2015-11-03T12:00:00Z,26.4679,-82.0631,1.74,27.42,2 
SCCF RECON,ioos:station:SCCF:11:1,2015-11-03T12:15:00Z,26.4679,-82.0631,1.74,27.74,2 
SCCF RECON,ioos:station:SCCF:11:1,2015-11-03T12:30:00Z,26.4679,-82.0631,1.74,27.76,2 
SCCF RECON,ioos:station:SCCF:11:1,2015-11-03T12:45:00Z,26.4679,-82.0631,1.74,27.78,2 
SCCF RECON,ioos:station:SCCF:11:1,2015-11-03T13:00:00Z,26.4679,-82.0631,1.74,27.75,2 
SCCF RECON,ioos:station:SCCF:11:1,2015-11-03T13:15:00Z,26.4679,-82.0631,1.74,27.58,2 
SCCF RECON,ioos:station:SCCF:11:1,2015-11-03T13:30:00Z,26.4679,-82.0631,1.74,27.51,2 
SCCF RECON,ioos:station:SCCF:11:1,2015-11-03T13:45:00Z,26.4679,-82.0631,1.74,27.78,2 
SCCF RECON,ioos:station:SCCF:11:1,2015-11-03T14:00:00Z,26.4679,-82.0631,1.74,27.85,2 
SCCF RECON,ioos:station:SCCF:11:1,2015-11-03T14:15:00Z,26.4679,-82.0631,1.74,27.9,2 
SCCF RECON,ioos:station:SCCF:11:1,2015-11-03T14:30:00Z,26.4679,-82.0631,1.74,27.96,2 
SCCF RECON,ioos:station:SCCF:11:1,2015-11-03T14:45:00Z,26.4679,-82.0631,1.74,27.97,2 
SCCF RECON,ioos:station:SCCF:11:1,2015-11-03T15:00:00Z,26.4679,-82.0631,1.74,28.05,2 
SCCF RECON,ioos:station:SCCF:11:1,2015-11-03T15:15:00Z,26.4679,-82.0631,1.74,28.11,2 
SCCF RECON,ioos:station:SCCF:11:1,2015-11-03T15:30:00Z,26.4679,-82.0631,1.74,28.16,2 
SCCF RECON,ioos:station:SCCF:11:1,2015-11-03T15:45:00Z,26.4679,-82.0631,1.74,28.23,2 
SCCF RECON,ioos:station:SCCF:11:1,2015-11-03T16:00:00Z,26.4679,-82.0631,1.74,28.31,2 
SCCF RECON,ioos:station:SCCF:11:1,2015-11-03T16:15:00Z,26.4679,-82.0631,1.74,28.37,2 
SCCF RECON,ioos:station:SCCF:11:1,2015-11-03T16:30:00Z,26.4679,-82.0631,1.74,28.42,2 
SCCF RECON,ioos:station:SCCF:11:1,2015-11-03T16:45:00Z,26.4679,-82.0631,1.74,28.52,2 
SCCF RECON,ioos:station:SCCF:11:1,2015-11-03T17:00:00Z,26.4679,-82.0631,1.74,28.56,2 
SCCF RECON,ioos:station:SCCF:11:1,2015-11-03T17:15:00Z,26.4679,-82.0631,1.74,28.59,2 
SCCF RECON,ioos:station:SCCF:11:1,2015-11-03T17:30:00Z,26.4679,-82.0631,1.74,28.84,2 
SCCF RECON,ioos:station:SCCF:11:1,2015-11-03T17:45:00Z,26.4679,-82.0631,1.74,28.9,2 
SCCF RECON,ioos:station:SCCF:11:1,2015-11-03T18:00:00Z,26.4679,-82.0631,1.74,29.05,2 
SCCF RECON,ioos:station:SCCF:11:1,2015-11-03T18:15:00Z,26.4679,-82.0631,1.74,29.17,2 
SCCF RECON,ioos:station:SCCF:11:1,2015-11-03T18:30:00Z,26.4679,-82.0631,1.74,29.13,2 
SCCF RECON,ioos:station:SCCF:11:1,2015-11-03T18:45:00Z,26.4679,-82.0631,1.74,28.83,2 
SCCF RECON,ioos:station:SCCF:11:1,2015-11-03T19:00:00Z,26.4679,-82.0631,1.74,28.8,2 
SCCF RECON,ioos:station:SCCF:11:1,2015-11-03T19:15:00Z,26.4679,-82.0631,1.74,28.84,2 
SCCF RECON,ioos:station:SCCF:11:1,2015-11-03T19:30:00Z,26.4679,-82.0631,1.74,28.94,2 
SCCF RECON,ioos:station:SCCF:11:1,2015-11-03T19:45:00Z,26.4679,-82.0631,1.74,28.93,2 
SCCF RECON,ioos:station:SCCF:11:1,2015-11-03T20:00:00Z,26.4679,-82.0631,1.74,28.83,2 
SCCF RECON,ioos:station:SCCF:11:1,2015-11-03T20:15:00Z,26.4679,-82.0631,1.74,28.75,2 
SCCF RECON,ioos:station:SCCF:11:1,2015-11-03T20:30:00Z,26.4679,-82.0631,1.74,28.97,2 
SCCF RECON,ioos:station:SCCF:11:1,2015-11-03T20:45:00Z,26.4679,-82.0631,1.74,28.88,2 
SCCF RECON,ioos:station:SCCF:11:1,2015-11-03T21:00:00Z,26.4679,-82.0631,1.74,28.75,2 
SCCF RECON,ioos:station:SCCF:11:1,2015-11-03T21:15:00Z,26.4679,-82.0631,1.74,28.74,2 